Hourly Data Report for July 02, 2020

OTTAWA INTL A
ONTARIO
Current Station Operator: NAVCAN

45°19'00.000" N
75°40'00.000" W
114.90 m
6106001
71628
YOW

Download Data

Hourly Data (July 2020)
Hourly Data Report for July 2, 2020
TIME
LST
Temp Definition
°C
Dew Point Definition
°C
Rel Hum Definition
%
Precip. Amount Definition
mm

Wind Dir Definition
10's deg

Wind Spd Definition
km/h
Visibility Definition
km
Stn Press Definition
kPa
Hmdx Definition


Wind Chill Definition


Weather Definition


00:00 20.6 15.8 74   24 8 24.1 99.65 25   LegendNANA
01:00 20.7 16.0 74   28 12 24.1 99.62 25   Clear
02:00 21.1 15.5 70   29 9 24.1 99.59 25   LegendNANA
03:00 21.4 15.5 69   29 12 24.1 99.60 26   LegendNANA
04:00 21.1 15.8 71   29 11 24.1 99.61 26   Mainly Clear
05:00 21.2 16.3 73   29 14 24.1 99.64 26   LegendNANA
06:00 22.4 16.5 69   29 17 24.1 99.63 27   LegendNANA
07:00 23.4 17.1 67   27 12 24.1 99.63 29   Mostly Cloudy
08:00 26.0 17.3 58   29 17 24.1 99.62 31   LegendNANA
09:00 27.4 18.0 56   29 16 24.1 99.60 33   LegendNANA
10:00 26.6 18.1 59   29 21 24.1 99.62 33   Mostly Cloudy
11:00 27.7 18.4 57   28 18 24.1 99.61 34   LegendNANA
12:00 30.4 19.1 50   29 21 24.1 99.60 37   LegendNANA
13:00 28.7 19.1 55   30 20 24.1 99.58 36   Cloudy
14:00 28.5 20.1 60   29 18 24.1 99.58 36   Rain Showers
15:00 30.3 20.3 54   28 18 24.1 99.55 38   LegendNANA
16:00 28.3 18.9 56   30 23 24.1 99.63 35   Rain Showers
17:00 23.4 20.5 84   31 8 24.1 99.61 31   Rain Showers
18:00 23.2 21.0 87   26 8 24.1 99.63 32   LegendNANA
19:00 23.2 20.7 86   28 7 24.1 99.66 31   Mostly Cloudy
20:00 22.4 21.0 91   28 8 24.1 99.64 31   LegendNANA
21:00 22.8 20.9 88   28 14 24.1 99.68 31   LegendNANA
22:00 22.9 21.2 90   29 10 24.1 99.68 31   Mostly Cloudy
23:00 22.7 20.9 90   31 12 24.1 99.71 31   LegendNANA

Notes on Data Quality.

Legend

  • E = Estimated
  • M = Missing
  • NA = Not Available*
  • [empty] = Indicates an unobserved value
Date modified: